Back to catalog

COSMOS 1191 DEB

AliveHEO
NORAD 27898·DEBRIS·🇷🇺 Russia

Launched Jul 2, 1980 from Plesetsk Cosmodrome

Loading…

Next Passes (next 24 hours)

TLE

FreshSource: Space-Track

Epoch: Sep 13, 2026, 16:00 UTC

1 27898U 80057L   26256.66667851 -.00000217  00000-0  00000-0 0  9991
2 27898  64.7769  45.6182 6981617  30.2591 355.8438  1.99718998 44712

Track COSMOS 1191 DEB in real time with AllMySat

Download on the App Store